Location: Bydgoszcz
(53.1640°N, 17.9142°E)
Time: 10:26:32
(UTC+02:00)

PCSat - Pass Details

Date: 19 April 2024
Orbit: 783 x 792 km, 67.1° (Epoch: 24 May)

Event Time Altitude Azimuth Distance (km) Brightness Sun altitude
Rises 22:44:55 0° 255° (WSW) 3,280 13.0 -20.2°
Reaches altitude 10° 22:47:34 10° 265° (W) 2,355 12.3 -20.4°
Maximum altitude 22:52:25 33° 329° (NNW) 1,319 11.4 -20.8°
Drops below altitude 10° 22:57:18 10° 33° (NNE) 2,368 12.4 -21.1°
Sets 22:59:58 0° 43° (NE) 3,301 13.0 -21.3°
